Flag for Germany Weather past 2 weeks in Haan, North Rhine-Westphalia, Germany

Now
50 °F

Scattered showers. Scattered clouds.


Feels Like: 44 °F
Forecast: 36 / 44 °F
Wind: 16 mph from Southwest

Location: Duesseldorf

Current Time: Mar 1, 2015 at 6:44:27 PM

Latest Report: Mar 1, 2015 at 5:50 PM


Visibility: N/A

Pressure: 29.62 "Hg

Humidity: 58%

Dew point: 36 °F

Location of HaanLocation

Historic Weather in Haan — Graph

°F

Haan temperature yesterday

Maximum temperature yesterday: 48 °F (at 2:50 PM)
Minimum temperature yesterday: 28 °F (at 4:20 AM)
Average temperature yesterday: 39 °F

Past Weeks' High & Low Weather Summary

 TemperatureHumidityPressure
High52 °F (Mar 1, 10:50 AM)100% (Feb 15, 4:20 AM)30.77 "Hg (Feb 15, 4:20 AM)
Low27 °F (Feb 15, 7:50 AM)43% (Feb 28, 3:50 PM)29.36 "Hg (Feb 21, 3:50 AM)
Average40 °F82%29.96 "Hg
* Reported Feb 14 5:20 PM — Mar 1 5:20 PM, Haan, Weather by CustomWeather, © 2015

Note: Actual official high and low records may vary slightly from our data, if they occured in-between our weather recording intervals... More about our weather records

Advertising

Haan weather history for previous 24 hours

 ConditionsComfort  
Time TempWeatherWind HumidityBarometerVisibility
5:20 PM
Sun, Mar 1
50 °FPassing clouds.21 mph54%29.59 "HgN/A
4:20 PM52 °FScattered clouds.23 mph58%29.62 "HgN/A
3:50 PM52 °FPassing clouds.18 mph54%29.59 "HgN/A
3:20 PM52 °FScattered clouds.21 mph58%29.59 "HgN/A
2:50 PM50 °FPartly sunny.24 mph62%29.62 "HgN/A
2:20 PM52 °FPartly sunny.20 mph54%29.62 "HgN/A
1:50 PM52 °FPartly sunny.22 mph58%29.59 "HgN/A
1:20 PM52 °FScattered clouds.22 mph50%29.62 "HgN/A
12:50 PM52 °FPassing clouds.26 mph54%29.62 "HgN/A
12:20 PM52 °FPassing clouds.22 mph54%29.62 "HgN/A
11:50 AM50 °FScattered clouds.20 mph62%29.62 "HgN/A
11:20 AM50 °FScattered clouds.23 mph62%29.62 "HgN/A
10:50 AM52 °FPassing clouds.21 mph67%29.59 "HgN/A
10:20 AM50 °FScattered showers. Broken clouds.17 mph76%29.59 "HgN/A
9:50 AM48 °FBroken clouds.20 mph87%29.59 "HgN/A
9:20 AM48 °FPartly sunny.16 mph87%29.59 "HgN/A
8:50 AM46 °FBroken clouds.14 mph93%29.59 "HgN/A
8:20 AM43 °FDrizzle. Broken clouds.13 mph100%29.59 "HgN/A
7:50 AM41 °FDrizzle. Mostly cloudy.14 mph100%29.56 "Hg3 mi
7:20 AM41 °FDrizzle. Mostly cloudy.15 mph100%29.56 "Hg3 mi
6:50 AM41 °FDrizzle. Overcast.17 mph93%29.56 "Hg4 mi
6:20 AM41 °FDrizzle. Mostly cloudy.18 mph100%29.56 "Hg2 mi
5:50 AM41 °FPartly cloudy.18 mph93%29.59 "Hg2 mi
5:20 AM41 °FPartly cloudy.21 mph93%29.59 "Hg2 mi
4:20 AM41 °FLight rain. Partly cloudy.20 mph87%29.59 "HgN/A
3:50 AM41 °FLight rain. Partly cloudy.20 mph81%29.62 "HgN/A
3:20 AM43 °FLight rain. Partly cloudy.18 mph71%29.62 "HgN/A
2:50 AM43 °FLight rain. Passing clouds.18 mph66%29.65 "HgN/A
2:20 AM43 °FLight rain. Passing clouds.16 mph66%29.65 "HgN/A
1:50 AM43 °FLight rain. Passing clouds.16 mph61%29.68 "HgN/A
1:20 AM45 °FLight rain. Passing clouds.18 mph49%29.74 "HgN/A
12:50 AM45 °FPassing clouds.18 mph49%29.74 "HgN/A
12:20 AM45 °FPassing clouds.20 mph49%29.74 "HgN/A
11:50 PM
Sat, Feb 28
45 °FPassing clouds.22 mph49%29.74 "HgN/A
11:20 PM43 °FPassing clouds.21 mph53%29.77 "HgN/A
10:50 PM43 °FPassing clouds.20 mph53%29.80 "HgN/A
10:20 PM45 °FPassing clouds.21 mph49%29.83 "HgN/A
9:50 PM45 °FPassing clouds.18 mph49%29.83 "HgN/A
9:20 PM45 °FPassing clouds.21 mph49%29.86 "HgN/A
8:50 PM43 °FPassing clouds.18 mph53%29.86 "HgN/A
8:20 PM45 °FPassing clouds.18 mph49%29.89 "HgN/A
7:50 PM45 °FPassing clouds.17 mph53%29.89 "HgN/A
7:20 PM45 °FClear.20 mph53%29.92 "Hg10 mi
6:50 PM45 °FClear.16 mph53%29.92 "Hg10 mi
6:20 PM45 °FClear.16 mph49%29.92 "Hg10 mi
Weather by CustomWeather, © 2015

See weather overviewHow to use our weather pages